Regional Weather Roundup
Issued by NWS

Home | Current Version | Previous Version | Graphics & Text | Print | Product List | Glossary On
Versions: 1 2 3 4 5 6 7 8 9 10 11 12 13 14 15 16 17 18 19 20 21 22 23 24 25 26 27 28 29 30 31 32 33 34 35 36 37 38 39 40 41 42 43 44 45 46 47 48 49 50
455
ASUS43 KLMK 230410
RWRKY
KENTUCKY REGIONAL WEATHER ROUNDUP
NATIONAL WEATHER SERVICE LOUISVILLE KY
1200 AM EDT SAT SEP 23 2017

NOTE "FAIR" INDICATES FEW OR NO CLOUDS BELOW 12,000 FEET
WITH NO SIGNIFICANT WEATHER AND/OR OBSTRUCTIONS TO VISIBILITY.

KYZ001>023-026-027-061>063-070>075-230500-
WESTERN AND SOUTH CENTRAL KENTUCKY

CITY           SKY/WX    TMP DP  RH WIND       PRES   REMARKS
PADUCAH        CLEAR     71  66  84 CALM      30.01S
HENDERSON      CLEAR     69  67  93 CALM      30.03S
OWENSBORO      CLEAR     74  68  81 CALM      30.04R
HOPKINSVILLE   CLEAR     73  67  82 NE5       30.02S
BOWLING GREEN  CLEAR     72  69  90 CALM      30.04S
GLASGOW        CLEAR     68  68 100 CALM      30.05R
$$

KYZ024-025-028>034-038-045-046-053-230500-
NORTH CENTRAL KENTUCKY

CITY           SKY/WX    TMP DP  RH WIND       PRES   REMARKS
LOUISVILLE/SDF CLEAR     79  67  66 SE3       30.05R
LOUISVILLE/LOU CLEAR     72  69  90 CALM      30.05S
FORT KNOX      CLEAR     70  68  92 CALM      30.04S
$$

KYZ035>037-039>044-047>052-055>060-089>105-230500-
NORTHEAST KENTUCKY

CITY           SKY/WX    TMP DP  RH WIND       PRES   REMARKS
LEXINGTON      CLEAR     67  63  87 CALM      30.08S
COVINGTON      CLEAR     70  68  93 CALM      30.07S
FRANKFORT      CLEAR     69  63  81 CALM      30.06S
$$

KYZ054-064>069-076>088-106>120-230500-
SOUTHEAST KENTUCKY

CITY           SKY/WX    TMP DP  RH WIND       PRES   REMARKS
JACKSON        CLEAR     70  64  81 CALM      30.09F
LONDON         CLEAR     67  64  90 CALM      30.08F
SOMERSET       CLEAR     68  66  94 CALM      30.09R
MIDDLESBORO    CLEAR     67  65  96 CALM      30.10S
MONTICELLO     CLEAR     65  64  97 W8        30.09S
$$





USA.gov is the U.S. government's official web portal to all federal, state and local government web resources and services.